[[{"header":{"parameterUnit":"m.s-1","parameterCategory":1,"la1":30.2992,"la2":30.254,"lo1":-89.0895,"lo2":-89.0443,"dy":0.0025,"dx":0.0025,"nx":19,"ny":19,"refTime":"2026-05-16T09:00:00:Z","depth":0,"parameterNumber":2,"parameterNumberName":"U-component_of_WINDS"},"data":[0,0,0,-5.1381,-5.1384,-5.1544,-5.1544,-5.1749,-5.1751,0,0,0,0,0,0,0,0,0,0,0,-5.1335,-5.1336,-5.138,-5.1384,-5.1543,-5.1544,-5.1749,-5.1751,0,0,0,0,0,0,0,0,0,0,0,-5.1334,-5.1336,-5.1338,-5.1385,-5.1543,-5.1544,-5.1749,-5.1628,0,0,0,0,0,0,0,0,0,0,-5.1473,-5.1432,-5.1336,-5.1338,-5.1386,-5.1543,-5.1544,-5.1622,-5.1635,-5.1678,0,-5.1717,0,-5.1738,-5.1765,-5.1766,0,0,0,-5.1383,-5.1421,-5.1463,-5.1338,-5.1387,-5.1543,-5.1471,-5.1629,-5.1645,-5.1696,-5.172,-5.1728,-5.1741,-5.1766,-5.1768,-5.2021,-5.2022,0,0,-5.1374,-5.1364,-5.1452,-5.1473,-5.1449,-5.1466,-5.1476,-5.1638,-5.1664,-5.1721,-5.1732,-5.1744,-5.1768,-5.1769,-5.2019,-5.2021,0,0,0,-5.135,-5.1358,-5.1396,-5.1464,-5.1493,-5.1471,-5.1482,-5.1657,-5.167,-5.1735,-5.1747,-5.1769,-5.1772,-5.2018,-5.202,-5.207,0,0,0,-5.1345,-5.1344,-5.1392,-5.1387,-5.149,-5.1577,-5.1497,-5.1659,-5.1677,-5.1746,-5.1769,-5.1774,-5.2017,-5.2019,-5.2066,-5.2094,0,0,0,-5.1324,-5.1341,-5.1365,-5.1387,-5.1455,-5.1574,-5.1597,-5.1663,-5.1685,-5.1766,-5.1774,-5.2016,-5.2019,-5.2062,-5.2088,-5.2157,0,0,0,-5.1299,-5.1408,-5.1366,-5.1492,-5.1454,-5.1606,-5.1596,-5.171,-5.1786,-5.177,-5.2017,-5.202,-5.2061,-5.2084,-5.2152,-5.221,-5.2234,0,0,-5.143,-5.1423,-5.1499,-5.1466,-5.1622,-5.1582,-5.1746,-5.1825,-5.1842,-5.196,-5.1966,-5.2067,-5.2088,-5.2156,-5.2377,-5.2396,0,0,0,-5.1537,-5.159,-5.1634,-5.1706,-5.177,-5.1827,-5.1882,-5.1911,-5.2012,-5.1901,-5.2112,-5.2125,-5.2165,-5.2193,-5.2209,-5.2243,-5.2033,-5.2033,-5.2033,-5.1706,-5.1723,-5.1848,-5.1884,-5.1955,-5.2012,-5.207,-5.2119,-5.2115,-5.2165,-5.2199,-5.2331,-5.2364,-5.2376,-5.2411,-5.2233,-5.2234,-5.2234,-5.2234,-5.1898,-5.1975,-5.197,-5.2088,-5.2106,-5.2206,-5.2266,-5.226,-5.2355,-5.2307,-5.2343,-5.2286,-5.2396,-5.2428,-5.2238,-5.2237,-5.2237,-5.2236,-5.2236,-5.2008,-5.2048,-5.2083,-5.2189,-5.227,-5.2304,-5.2395,-5.2409,-5.2422,-5.2458,-5.2494,-5.2493,-5.2492,-5.2475,-5.2475,-5.2476,-5.2476,-5.2477,-5.2477,-5.2107,-5.2145,-5.2221,-5.2299,-5.2347,-5.2412,-5.2472,-5.252,-5.2576,-5.2578,-5.2578,-5.2568,-5.2405,-5.2361,-5.2484,-5.2483,-5.2482,-5.2481,-5.2481,-5.2289,-5.2251,-5.2367,-5.2416,-5.2509,-5.2587,-5.2604,-5.27,-5.2742,-5.2787,-5.2771,-5.2649,-5.2642,-5.2629,-5.2593,-5.2768,-5.2768,-5.2768,-5.2768,-5.238,-5.2379,-5.2501,-5.2577,-5.2654,-5.2682,-5.2813,-5.2861,-5.2904,-5.2931,-5.2909,-5.2864,-5.285,-5.2851,-5.2834,-5.28,-5.3024,-5.3024,-5.3024,-5.2492,-5.2499,-5.2607,-5.265,-5.2724,-5.2787,-5.2911,-5.2998,-5.304,-5.3035,-5.2952,-5.2941,-5.2869,-5.2845,-5.2833,-5.2806,-5.2745,0,0]},{"header":{"parameterUnit":"m.s-1","parameterCategory":1,"la1":30.2992,"la2":30.254,"lo1":-89.0895,"lo2":-89.0443,"dy":0.0025,"dx":0.0025,"nx":19,"ny":19,"refTime":"2026-05-16T09:00:00:Z","depth":0,"parameterNumber":3,"parameterNumberName":"V-component_of_WINDS"},"data":[0,0,0,4.6159,4.616,4.6194,4.6194,4.6245,4.6246,0,0,0,0,0,0,0,0,0,0,0,4.6154,4.6154,4.6159,4.616,4.6194,4.6194,4.6245,4.6246,0,0,0,0,0,0,0,0,0,0,0,4.6153,4.6154,4.6155,4.616,4.6194,4.6194,4.6245,4.6217,0,0,0,0,0,0,0,0,0,0,4.6182,4.6182,4.6154,4.6155,4.616,4.6194,4.6194,4.6215,4.6218,4.6233,0,4.6248,0,4.6248,4.625,4.625,0,0,0,4.6156,4.6179,4.6184,4.6155,4.6161,4.6194,4.6178,4.6217,4.6221,4.6237,4.6249,4.625,4.6249,4.625,4.625,4.635,4.6351,0,0,4.6154,4.6162,4.6182,4.6187,4.6183,4.6177,4.6179,4.6219,4.6231,4.6249,4.6251,4.625,4.6251,4.6251,4.635,4.6351,0,0,0,4.6151,4.6161,4.6165,4.6185,4.6191,4.6178,4.618,4.6229,4.623,4.6252,4.625,4.6251,4.6252,4.6349,4.635,4.639,0,0,0,4.615,4.6159,4.6164,4.6169,4.619,4.6211,4.619,4.6227,4.6232,4.625,4.6251,4.6252,4.6348,4.635,4.6388,4.6408,0,0,0,4.615,4.6159,4.6166,4.617,4.6185,4.621,4.6213,4.6228,4.6231,4.625,4.6252,4.6348,4.6349,4.6385,4.6404,4.6437,0,0,0,4.6151,4.62,4.6167,4.6221,4.6185,4.6235,4.6212,4.6249,4.627,4.6251,4.6348,4.635,4.6385,4.6402,4.6435,4.6466,4.648,0,0,4.6217,4.6208,4.624,4.6211,4.6269,4.6229,4.6293,4.6304,4.6298,4.6333,4.6335,4.6389,4.6404,4.6437,4.6556,4.6568,0,0,0,4.6263,4.6286,4.63,4.6321,4.6332,4.6343,4.6344,4.6348,4.6378,4.6318,4.6409,4.6418,4.6437,4.6452,4.6461,4.6477,4.6357,4.6357,4.6357,4.6367,4.6359,4.641,4.6406,4.6427,4.6428,4.6444,4.645,4.6434,4.6456,4.6466,4.654,4.6558,4.6565,4.6581,4.6482,4.6482,4.6482,4.6482,4.6463,4.6494,4.6473,4.6516,4.6506,4.6541,4.6545,4.6532,4.6563,4.6531,4.6547,4.6513,4.6577,4.6591,4.6485,4.6485,4.6484,4.6484,4.6484,4.6531,4.6544,4.655,4.6581,4.6605,4.6599,4.6631,4.662,4.661,4.6626,4.6636,4.6636,4.6634,4.6632,4.6632,4.6633,4.6633,4.6633,4.6633,4.6598,4.6603,4.6631,4.6649,4.6662,4.6677,4.668,4.6693,4.6704,4.6693,4.6693,4.6675,4.6585,4.6563,4.6637,4.6636,4.6636,4.6636,4.6635,4.6699,4.6675,4.6719,4.6732,4.6752,4.6777,4.6764,4.6791,4.6799,4.6815,4.6794,4.6729,4.6719,4.6711,4.6693,4.6796,4.6796,4.6796,4.6796,4.6755,4.675,4.6793,4.6815,4.6836,4.6829,4.6879,4.6882,4.6881,4.6886,4.6869,4.6844,4.6837,4.6831,4.682,4.6803,4.6932,4.6932,4.6932,4.6817,4.6813,4.6858,4.6858,4.6873,4.6886,4.6933,4.6959,4.6952,4.6937,4.6889,4.6884,4.6842,4.683,4.6812,4.6797,4.6764,0,0]}]]